| time (UTC) | temp F | wind direction | speed knots | gust knots | rain 1hr in | rain 24hr in | rain mn in | humidity % | barometer mb |
| 20260508053003 | 56 | 0.0 | 0.0 | 0.00 | 0.00 | 0.00 | 70 | 1017.8 | |
| 20260508051504 | 57 | 0.0 | 0.0 | 0.00 | 0.00 | 0.00 | 68 | 1017.8 | |
| 20260508040012 | 61 | 0.0 | 0.0 | 0.00 | 0.00 | 0.00 | 62 | 1017.2 | |
| 20260508034515 | 62 | 0.0 | 0.0 | 0.00 | 0.00 | 0.00 | 59 | 1017.2 | |
| 20260508030007 | 66 | 0.0 | 0.0 | 0.00 | 0.00 | 0.00 | 56 | 1016.4 | |
| 20260508024509 | 67 | 0.0 | 0.0 | 0.00 | 0.00 | 0.00 | 52 | 1016.4 | |
| 20260508023016 | 68 | 0.0 | 0.0 | 0.00 | 0.00 | 0.00 | 50 | 1016.4 | |
| 20260508021529 | 69 | 0.0 | 0.0 | 0.00 | 0.00 | 0.00 | 49 | 1016.2 | |
| 20260508014509 | 71 | 0.0 | 0.0 | 0.00 | 0.00 | 0.00 | 47 | 1016.2 | |
| 20260508011519 | 72 | 0.0 | 0.0 | 0.00 | 0.00 | 0.00 | 49 | 1016.6 | |
| 20260508010025 | 72 | 0.0 | 0.0 | 0.00 | 0.00 | 0.00 | 49 | 1016.7 | |
| 20260508003013 | 72 | 0.0 | 0.0 | 0.00 | 0.00 | 0.00 | 47 | 1016.7 | |
| 20260508000022 | 72 | 0.0 | 0.0 | 0.00 | 0.00 | 0.00 | 45 | 1016.9 | |
| 20260507234523 | 73 | 0.0 | 0.0 | 0.00 | 0.00 | 0.00 | 45 | 1016.9 | |
| 20260507233034 | 73 | 0.0 | 0.0 | 0.00 | 0.00 | 0.00 | 43 | 1017.1 | |
| 20260507230020 | 74 | 0.0 | 0.0 | 0.00 | 0.00 | 0.00 | 42 | 1017.5 | |
| 20260507224523 | 74 | 0.0 | 0.0 | 0.00 | 0.00 | 0.00 | 42 | 1017.8 | |
| 20260507221517 | 76 | 0.0 | 0.0 | 0.00 | 0.00 | 0.00 | 39 | 1018.2 | |
| 20260507214521 | 75 | 0.0 | 0.0 | 0.00 | 0.00 | 0.00 | 41 | 1018.7 | |
| 20260507204517 | 74 | 0.0 | 0.0 | 0.00 | 0.00 | 0.00 | 44 | 1019.2 | |
| 20260507203022 | 74 | 0.0 | 0.0 | 0.00 | 0.00 | 0.00 | 41 | 1019.5 | |
| 20260507201509 | 73 | 0.0 | 0.0 | 0.00 | 0.00 | 0.00 | 45 | 1019.6 | |
| 20260507191526 | 68 | 0.0 | 0.0 | 0.00 | 0.00 | 0.00 | 51 | 1020.0 | |
| 20260507184518 | 64 | 0.0 | 0.0 | 0.00 | 0.00 | 0.00 | 58 | 1020.2 | |
| 20260507181524 | 62 | 0.0 | 0.0 | 0.00 | 0.00 | 0.00 | 60 | 1020.5 | |
| 20260507180028 | 62 | 0.0 | 0.0 | 0.00 | 0.00 | 0.00 | 62 | 1020.6 | |
| 20260507171520 | 59 | 0.0 | 0.0 | 0.00 | 0.00 | 0.00 | 69 | 1020.8 | |
| 20260507170022 | 59 | 0.0 | 0.0 | 0.00 | 0.00 | 0.00 | 69 | 1020.8 | |
| 20260507164526 | 59 | 0.0 | 0.0 | 0.00 | 0.00 | 0.00 | 72 | 1020.9 | |
| 20260507163016 | 58 | 0.0 | 0.0 | 0.00 | 0.00 | 0.00 | 73 | 1020.8 | |
| 20260507161521 | 57 | 0.0 | 0.0 | 0.00 | 0.00 | 0.00 | 74 | 1020.8 | |
| 20260507160024 | 57 | 0.0 | 0.0 | 0.00 | 0.00 | 0.00 | 75 | 1020.9 | |
| 20260507154532 | 56 | 0.0 | 0.0 | 0.00 | 0.00 | 0.00 | 78 | 1020.9 | |
| 20260507153038 | 55 | 0.0 | 0.0 | 0.00 | 0.00 | 0.00 | 78 | 1021.0 | |
| 20260507151518 | 55 | 0.0 | 0.0 | 0.00 | 0.00 | 0.00 | 81 | 1021.0 | |
| 20260507150026 | 54 | 0.0 | 0.0 | 0.00 | 0.00 | 0.00 | 81 | 1021.1 | |
| 20260507144523 | 54 | 0.0 | 0.0 | 0.00 | 0.00 | 0.00 | 82 | 1021.0 | |
| 20260507143027 | 54 | 0.0 | 0.0 | 0.00 | 0.00 | 0.00 | 83 | 1020.9 | |
| 20260507141504 | 54 | 0.0 | 0.0 | 0.00 | 0.00 | 0.00 | 83 | 1020.9 | |
| 20260507133008 | 53 | 0.0 | 0.0 | 0.00 | 0.00 | 0.00 | 83 | 1020.7 | |
| 20260507131516 | 53 | 0.0 | 0.0 | 0.00 | 0.00 | 0.00 | 83 | 1020.7 | |
| 20260507130012 | 53 | 0.0 | 0.0 | 0.00 | 0.00 | 0.00 | 83 | 1020.8 | |
| 20260507124511 | 53 | 0.0 | 0.0 | 0.00 | 0.00 | 0.00 | 82 | 1020.8 | |
| 20260507121512 | 53 | 0.0 | 0.0 | 0.00 | 0.00 | 0.00 | 82 | 1021.1 | |
| 20260507120018 | 53 | 0.0 | 0.0 | 0.00 | 0.00 | 0.00 | 82 | 1021.1 | |
| 20260507114509 | 53 | 0.0 | 0.0 | 0.00 | 0.00 | 0.00 | 82 | 1021.1 | |
| 20260507113010 | 53 | 0.0 | 0.0 | 0.00 | 0.00 | 0.00 | 83 | 1021.2 | |
| 20260507110014 | 53 | 0.0 | 0.0 | 0.00 | 0.00 | 0.00 | 82 | 1021.3 | |
| 20260507104513 | 53 | 0.0 | 0.0 | 0.00 | 0.00 | 0.00 | 82 | 1021.3 | |
| 20260507103026 | 53 | 0.0 | 0.0 | 0.00 | 0.00 | 0.00 | 82 | 1021.3 | |
| 20260507101515 | 53 | 0.0 | 0.0 | 0.00 | 0.00 | 0.00 | 82 | 1021.5 | |
| 20260507100012 | 53 | 0.0 | 0.0 | 0.00 | 0.00 | 0.00 | 82 | 1021.5 | |
| 20260507094516 | 53 | 0.0 | 0.0 | 0.00 | 0.00 | 0.00 | 83 | 1021.7 | |
| 20260507093026 | 52 | 0.0 | 0.0 | 0.00 | 0.00 | 0.00 | 83 | 1021.8 | |
| 20260507091515 | 52 | 0.0 | 0.0 | 0.00 | 0.00 | 0.00 | 84 | 1021.9 | |
| 20260507090012 | 52 | 0.0 | 0.0 | 0.00 | 0.00 | 0.00 | 84 | 1021.9 | |
| 20260507084511 | 52 | 0.0 | 0.0 | 0.00 | 0.00 | 0.00 | 83 | 1021.9 | |
| 20260507083014 | 52 | 0.0 | 0.0 | 0.00 | 0.00 | 0.00 | 83 | 1022.1 | |
| 20260507081511 | 52 | 0.0 | 0.0 | 0.00 | 0.00 | 0.00 | 83 | 1022.0 | |
| 20260507080016 | 52 | 0.0 | 0.0 | 0.00 | 0.00 | 0.00 | 83 | 1022.0 | |
| 20260507073017 | 52 | 0.0 | 0.0 | 0.00 | 0.00 | 0.00 | 82 | 1022.1 | |
| 20260507071548 | 52 | 0.0 | 0.0 | 0.00 | 0.00 | 0.00 | 82 | 1022.1 | |
| 20260507070016 | 51 | 0.0 | 0.0 | 0.00 | 0.00 | 0.00 | 82 | 1022.1 | |
| 20260507064522 | 51 | 0.0 | 0.0 | 0.00 | 0.00 | 0.00 | 81 | 1022.1 | |
| 20260507061518 | 52 | 0.0 | 0.0 | 0.00 | 0.00 | 0.00 | 80 | 1022.2 | |
| 20260507060020 | 52 | 0.0 | 0.0 | 0.00 | 0.00 | 0.00 | 80 | 1022.2 |